User: anonymous   Login
Location: Unspecified
(0.0000°N, 0.0000°E)
Time: 09:23:34
(UTC+00:00)
Language:

CUTE 1.7 + AOD 2 - Orbit

View from above orbital plane
View from above orbital plane
View from above satellite
View from above satellite

Ground track
Ground track

The orbit data is extracted from the following two-line orbital elements,

1 32785U 08021C   15086.95042382  .00003001  00000-0  34422-3 0  9991
2 32785 097.6593 133.4792 0012783 340.8897 104.3370 14.86558110374163
Epoch (UTC): 27 March 2015 22:48:36
Eccentricity: 0.0012783
inclination: 97.6593°
perigee height: 600 km
apogee height: 617 km
right ascension of ascending node: 133.4792°
argument of perigee: 340.8897°
revolutions per day: 14.86558110
mean anomaly at epoch: 104.3370°
orbit number at epoch: 37416

The dashed part of the orbit path shows where the satellite is in the earth's shadow,  

DLR